FW2017 Weather Reports


Display with metric or nautical units.
time (UTC)temp
F
wind
direction
speed
MPH
gust
MPH
rain 1hr
in
rain 24hr
in
rain mn
in
humidity
%
barometer
mb
20210926081527 59 0.0 0.0 0.00 0.00 0.00 84 1019.4
20210926080523 59 0.0 0.0 0.00 0.00 0.00 84 1019.4
20210926075520 60 0.0 0.0 0.00 0.00 0.00 83 1019.3
20210926074516 60 0.0 0.0 0.00 0.00 0.00 81 1019.4
20210926073613 61 0.0 0.0 0.00 0.00 0.00 80 1019.4
20210926072609 61 0.0 0.0 0.00 0.00 0.00 79 1019.4
20210926071606 62 0.0 0.0 0.00 0.00 0.00 80 1019.4
20210926070603 61 0.0 0.0 0.00 0.00 0.00 80 1019.4
20210926065600 61 0.0 0.0 0.00 0.00 0.00 79 1019.5
20210926064555 62 0.0 0.0 0.00 0.00 0.00 78 1019.3
20210926063552 62 0.0 0.0 0.00 0.00 0.00 76 1019.4
20210926062549 62 0.0 0.0 0.00 0.00 0.00 77 1019.3
20210926061546 62 0.0 0.0 0.00 0.00 0.00 78 1019.5
20210926060541 62 0.0 0.0 0.00 0.00 0.00 78 1019.6
20210926055538 62 0.0 0.0 0.00 0.00 0.00 78 1019.5
20210926054534 62 0.0 0.0 0.00 0.00 0.00 79 1019.5
20210926053531 62 0.0 1.0 0.00 0.00 0.00 79 1019.6
20210926052529 62 0.0 0.0 0.00 0.00 0.00 80 1019.6
20210926051525 62 0.0 0.0 0.00 0.00 0.00 79 1019.6
20210926050522 63 0.0 0.0 0.00 0.00 0.00 78 1019.6
20210926045517 63 0.0 0.0 0.00 0.00 0.00 77 1019.7
20210926044614 63 0.0 0.0 0.00 0.00 0.00 76 1019.8
20210926043611 64 0.0 0.0 0.00 0.00 0.00 75 1019.9
20210926042607 64 0.0 0.0 0.00 0.00 0.00 74 1019.9
20210926041604 64 0.0 0.0 0.00 0.00 0.00 73 1019.8
20210926040601 65 0.0 0.0 0.00 0.00 0.00 72 1019.8
20210926035557 65 0.0 0.0 0.00 0.00 0.00 70 1019.9
20210926034554 66 0.0 0.0 0.00 0.00 0.00 68 1020.0
20210926033551 66 0.0 0.0 0.00 0.00 0.00 67 1020.0
20210926032546 66 0.0 0.0 0.00 0.00 0.00 67 1019.8
20210926031543 67 0.0 0.0 0.00 0.00 0.00 67 1019.7
20210926030541 67 0.0 0.0 0.00 0.00 0.00 66 1019.8
20210926025536 67 0.0 0.0 0.00 0.00 0.00 65 1019.8
20210926024533 68 0.0 0.0 0.00 0.00 0.00 63 1019.8
20210926023529 68 0.0 0.0 0.00 0.00 0.00 61 1019.7
20210926022527 69 0.0 0.0 0.00 0.00 0.00 60 1019.7
20210926021523 69 0.0 0.0 0.00 0.00 0.00 59 1019.7
20210926020519 70 0.0 0.0 0.00 0.00 0.00 55 1019.5
20210926015515 71 0.0 0.0 0.00 0.00 0.00 53 1019.5
20210926014613 71 0.0 0.0 0.00 0.00 0.00 51 1019.3
20210926013609 72 0.0 0.0 0.00 0.00 0.00 50 1019.2
20210926012606 73 0.0 0.0 0.00 0.00 0.00 50 1019.1
20210926011603 73 0.0 0.0 0.00 0.00 0.00 49 1019.0
20210926010559 73 0.0 0.0 0.00 0.00 0.00 49 1018.9
20210926005555 74 0.0 0.0 0.00 0.00 0.00 46 1019.0
20210926004553 76 0.0 0.0 0.00 0.00 0.00 43 1018.8
20210926003549 77 0.0 0.0 0.00 0.00 0.00 41 1018.8
20210926002546 79 0.0 0.0 0.00 0.00 0.00 38 1018.9
20210926001542 81 0.0 0.0 0.00 0.00 0.00 34 1018.9
20210926000538 85 0.0 0.0 0.00 0.00 0.00 32 1018.9
20210925235535 87 0.0 0.0 0.00 0.00 0.00 30 1018.9
20210925234531 88 0.0 0.0 0.00 0.00 0.00 29 1018.9
20210925233528 89 0.0 0.0 0.00 0.00 0.00 28 1019.0
20210925232525 89 0.0 0.0 0.00 0.00 0.00 27 1019.0
20210925231521 89 0.0 1.0 0.00 0.00 0.00 29 1018.9
20210925230517 88 135 0.0 4.0 0.00 0.00 0.00 28 1019.0
20210925225615 89 90 0.0 2.0 0.00 0.00 0.00 27 1018.9
20210925224611 89 0.0 0.0 0.00 0.00 0.00 25 1019.0
20210925223607 91 180 0.0 2.0 0.00 0.00 0.00 23 1018.9
20210925222605 92 90 0.0 2.0 0.00 0.00 0.00 24 1019.0
20210925221601 92 90 0.0 3.0 0.00 0.00 0.00 24 1019.1
20210925220557 93 90 1.0 2.0 0.00 0.00 0.00 24 1019.2
20210925215554 93 97 1.0 3.0 0.00 0.00 0.00 24 1019.1
20210925214550 93 137 1.0 4.0 0.00 0.00 0.00 22 1019.2
20210925213547 93 107 0.0 3.0 0.00 0.00 0.00 23 1019.3
20210925212544 92 153 1.0 2.0 0.00 0.00 0.00 24 1019.3
20210925211541 92 90 0.0 3.0 0.00 0.00 0.00 24 1019.5
20210925210537 90 73 1.0 3.0 0.00 0.00 0.00 24 1019.5
20210925205534 91 29 2.0 6.0 0.00 0.00 0.00 23 1019.6
20210925204530 92 96 1.0 4.0 0.00 0.00 0.00 23 1019.8
20210925203528 91 86 1.0 4.0 0.00 0.00 0.00 24 1019.8
20210925202524 91 68 2.0 6.0 0.00 0.00 0.00 21 1019.9
20210925201521 91 53 1.0 4.0 0.00 0.00 0.00 22 1020.0
20210925200517 92 45 4.0 6.0 0.00 0.00 0.00 23 1020.2
20210925195613 92 83 2.0 6.0 0.00 0.00 0.00 24 1020.3
20210925194610 92 124 2.0 5.0 0.00 0.00 0.00 24 1020.4
20210925193607 92 95 3.0 6.0 0.00 0.00 0.00 24 1020.6
20210925192604 92 70 2.0 5.0 0.00 0.00 0.00 26 1020.8
20210925191600 91 149 1.0 4.0 0.00 0.00 0.00 26 1020.9
20210925190556 91 85 3.0 6.0 0.00 0.00 0.00 25 1021.0
20210925185554 90 45 0.0 2.0 0.00 0.00 0.00 26 1021.2
20210925184549 90 259 3.0 4.0 0.00 0.00 0.00 25 1021.3
20210925183546 89 93 1.0 5.0 0.00 0.00 0.00 29 1021.4
20210925182543 89 5 0.0 3.0 0.00 0.00 0.00 25 1021.6
20210925181539 88 45 0.0 2.0 0.00 0.00 0.00 26 1021.7
20210925180535 87 90 1.0 2.0 0.00 0.00 0.00 30 1021.9
20210925175532 87 0 1.0 4.0 0.00 0.00 0.00 27 1022.0
20210925174529 88 302 0.0 3.0 0.00 0.00 0.00 23 1022.0
20210925173525 88 315 2.0 5.0 0.00 0.00 0.00 28 1022.2
20210925172523 87 294 0.0 2.0 0.00 0.00 0.00 29 1022.2
20210925171518 87 264 1.0 4.0 0.00 0.00 0.00 31 1022.4
20210925170615 86 342 0.0 3.0 0.00 0.00 0.00 32 1022.5
20210925165613 85 225 0.0 4.0 0.00 0.00 0.00 34 1022.5
20210925164608 85 225 0.0 2.0 0.00 0.00 0.00 35 1022.5
20210925163604 85 255 1.0 3.0 0.00 0.00 0.00 36 1022.5
20210925162601 84 270 0.0 2.0 0.00 0.00 0.00 40 1022.5
20210925161558 84 242 0.0 4.0 0.00 0.00 0.00 40 1022.7
20210925160554 82 0.0 0.0 0.00 0.00 0.00 44 1022.9
20210925155551 82 225 0.0 2.0 0.00 0.00 0.00 45 1022.8
20210925154548 80 189 0.0 2.0 0.00 0.00 0.00 47 1022.8
20210925153544 80 241 0.0 2.0 0.00 0.00 0.00 50 1022.9
20210925152542 78 96 0.0 4.0 0.00 0.00 0.00 55 1022.6
20210925151537 76 0.0 1.0 0.00 0.00 0.00 59 1022.6
20210925150535 74 0.0 1.0 0.00 0.00 0.00 64 1022.7
20210925145531 72 0.0 0.0 0.00 0.00 0.00 67 1022.6
20210925144527 70 0.0 0.0 0.00 0.00 0.00 72 1022.6
20210925143523 68 0.0 0.0 0.00 0.00 0.00 75 1022.5
20210925142520 67 0.0 0.0 0.00 0.00 0.00 81 1022.4
20210925141516 66 0.0 0.0 0.00 0.00 0.00 89 1022.3
20210925140614 64 0.0 0.0 0.00 0.00 0.00 94 1022.3
20210925135609 62 0.0 0.0 0.00 0.00 0.00 94 1022.1
20210925134607 60 0.0 0.0 0.00 0.00 0.00 95 1022.2
20210925133603 58 0.0 0.0 0.00 0.00 0.00 97 1022.1
20210925132559 56 0.0 0.0 0.00 0.00 0.00 97 1022.1
20210925131556 55 0.0 0.0 0.00 0.00 0.00 97 1022.1
20210925130552 54 0.0 0.0 0.00 0.00 0.00 96 1021.9
20210925125549 53 0.0 0.0 0.00 0.00 0.00 96 1021.8
20210925124546 53 0.0 0.0 0.00 0.00 0.00 96 1021.6
20210925123543 53 0.0 0.0 0.00 0.00 0.00 96 1021.5
20210925122538 54 0.0 0.0 0.00 0.00 0.00 96 1021.5
20210925121535 54 0.0 0.0 0.00 0.00 0.00 95 1021.5
20210925120532 53 0.0 0.0 0.00 0.00 0.00 95 1021.3
20210925115529 53 0.0 0.0 0.00 0.00 0.00 94 1021.2
20210925114525 53 0.0 0.0 0.00 0.00 0.00 94 1021.2
20210925113522 54 0.0 0.0 0.00 0.00 0.00 94 1021.2
20210925112519 54 0.0 0.0 0.00 0.00 0.00 94 1020.9
20210925111615 54 0.0 0.0 0.00 0.00 0.00 94 1020.8
20210925110611 54 0.0 0.0 0.00 0.00 0.00 94 1020.7
20210925105608 54 0.0 0.0 0.00 0.00 0.00 93 1020.5
20210925104605 54 0.0 0.0 0.00 0.00 0.00 93 1020.5
20210925103601 55 0.0 0.0 0.00 0.00 0.00 93 1020.4
20210925102558 55 0.0 0.0 0.00 0.00 0.00 93 1020.4
20210925101555 55 0.0 0.0 0.00 0.00 0.00 93 1020.3
20210925100551 55 0.0 0.0 0.00 0.00 0.00 92 1020.2
20210925095547 55 0.0 0.0 0.00 0.00 0.00 93 1020.1
20210925094545 55 0.0 0.0 0.00 0.00 0.00 93 1020.1
20210925093540 55 0.0 0.0 0.00 0.00 0.00 93 1020.0
20210925092537 55 0.0 0.0 0.00 0.00 0.00 92 1020.0
20210925091534 55 0.0 0.0 0.00 0.00 0.00 92 1019.9
20210925090530 55 0.0 0.0 0.00 0.00 0.00 92 1019.9
20210925085527 55 0.0 0.0 0.00 0.00 0.00 91 1019.9
20210925084524 56 0.0 0.0 0.00 0.00 0.00 90 1019.9
20210925083521 56 0.0 0.0 0.00 0.00 0.00 90 1020.0
20210925082518 57 0.0 0.0 0.00 0.00 0.00 89 1020.0